Home   Weather   22°43'N, 71°38'E   Past weeks
Flag for India

Past Weather in 22°43'N, 71°38'E, India — Yesterday and Last 2 Weeks

Now
81 °F

Clear.


Feels Like: 80 °F
Forecast: 95 / 66 °F
Wind: No wind

Location: Ahmadabad Airport

Current Time: Mar 20, 2019 at 11:19:54 pm

Latest Report: Mar 20, 2019 at 10:30 pm


Visibility: 2 mi

Pressure: 29.86 "Hg

Humidity: 32%

Dew Point: 48 °F

Location of 22°43'N, 71°38'ELocation

Past Weather in 22°43'N, 71°38'E — Graph

°F

22°43'N, 71°38'E Temperature Yesterday

Maximum temperature yesterday: 100 °F (at 3:30 pm)
Minimum temperature yesterday: 66 °F (at 5:30 am)
Average temperature yesterday: 83 °F

High & Low Weather Summary for the Past Weeks

 TemperatureHumidityPressure
High100 °F (Mar 19, 3:30 pm)69% (Mar 11, 5:30 am)30.09 "Hg (Mar 11, 5:30 am)
Low57 °F (Mar 12, 6:00 am)12% (Mar 18, 3:30 pm)29.74 "Hg (Mar 19, 5:00 pm)
Average78 °F32%29.91 "Hg
* Reported Mar 5 9:30 pm — Mar 20 10:00 pm, 22°43'N, 71°38'E. Weather by CustomWeather, © 2019

Note: Actual official high and low records may vary slightly from our data, if they occured in-between our weather recording intervals... More about our weather records

Advertising

22°43'N, 71°38'E Weather History for the Previous 24 Hours

Scroll right to see more
 ConditionsComfort  
Time TempWeatherWind HumidityBarometerVisibility
10:00 pm
Wed, Mar 20
82 °FClear.No wind30%29.83 "Hg2 mi
9:30 pm82 °FClear.3 mph30%29.83 "Hg2 mi
9:00 pm84 °FClear.2 mph31%29.83 "Hg2 mi
8:30 pm82 °FClear.No wind32%29.80 "Hg2 mi
8:00 pm84 °FClear.No wind33%29.80 "Hg2 mi
7:30 pm86 °FClear.No wind29%29.80 "Hg2 mi
7:00 pm88 °FClear.3 mph29%29.77 "Hg2 mi
6:30 pm91 °FClear.6 mph24%29.77 "Hg3 mi
6:00 pm91 °FClear.6 mph23%29.77 "Hg4 mi
5:30 pm93 °FClear.9 mph23%29.77 "Hg4 mi
5:00 pm95 °FClear.6 mph23%29.77 "Hg4 mi
4:30 pm95 °FClear.6 mph23%29.77 "Hg4 mi
4:00 pm93 °FClear.6 mph24%29.77 "Hg4 mi
3:30 pm93 °FClear.9 mph26%29.77 "Hg4 mi
3:00 pm93 °FClear.6 mph26%29.80 "Hg4 mi
2:30 pm93 °FClear.6 mph28%29.80 "Hg4 mi
2:00 pm91 °FClear.7 mph34%29.83 "Hg4 mi
1:30 pm90 °FClear.3 mph36%29.83 "Hg4 mi
1:00 pm90 °FClear.8 mph36%29.83 "Hg4 mi
12:30 pm88 °FClear.6 mph40%29.86 "Hg4 mi
12:00 pm86 °FClear.6 mph40%29.86 "Hg3 mi
11:30 am84 °FClear.8 mph43%29.86 "Hg3 mi
11:00 am82 °FClear.10 mph45%29.89 "Hg3 mi
10:30 am82 °FClear.9 mph45%29.89 "Hg3 mi
10:00 am81 °FClear.9 mph51%29.89 "Hg2 mi
9:30 am77 °FClear.7 mph54%29.86 "Hg2 mi
9:00 am77 °FClear.9 mph54%29.86 "Hg1 mi
8:30 am73 °FClear.5 mph61%29.86 "Hg1 mi
8:00 am70 °FHaze.2 mph60%29.83 "Hg1 mi
7:30 am68 °FHaze.3 mph64%29.83 "Hg1 mi
7:00 am68 °FHaze.No wind64%29.80 "Hg2 mi
6:30 am68 °FHaze.No wind64%29.80 "Hg2 mi
6:00 am70 °FClear.3 mph60%29.77 "Hg2 mi
5:30 am72 °FClear.3 mph57%29.77 "Hg2 mi
5:00 am72 °FClear.3 mph53%29.77 "Hg2 mi
4:30 am72 °FClear.3 mph53%29.74 "Hg2 mi
3:30 am73 °FClear.3 mph41%29.74 "Hg2 mi
3:00 am73 °FClear.3 mph38%29.77 "Hg2 mi
2:30 am77 °FClear.6 mph34%29.77 "Hg2 mi
2:00 am77 °FClear.3 mph28%29.77 "Hg2 mi
1:30 am79 °FClear.6 mph26%29.80 "Hg2 mi
1:00 am81 °FClear.6 mph23%29.80 "Hg2 mi
12:30 am82 °FClear.8 mph21%29.80 "Hg2 mi
12:00 am82 °FClear.5 mph25%29.83 "Hg2 mi
11:30 pm
Tue, Mar 19
81 °FClear.6 mph26%29.83 "Hg2 mi
11:00 pm82 °FClear.5 mph25%29.83 "Hg2 mi
Weather by CustomWeather, © 2019

See weather overview